CW2303 Weather Reports


Display with metric or nautical units.
time (UTC)temp
F
wind
direction
speed
MPH
gust
MPH
rain 1hr
in
rain 24hr
in
rain mn
in
humidity
%
barometer
mb
20260507151555 58 262 2.0 5.0 0.00 0.00 0.00 44 1018.6
20260507151042 58 245 1.0 8.0 0.00 0.00 0.00 48 1018.6
20260507150542 58 182 1.0 8.0 0.00 0.00 0.00 48 1018.6
20260507150057 58 119 2.0 8.0 0.00 0.00 0.00 45 1018.7
20260507145544 58 122 0.0 6.0 0.00 0.00 0.00 47 1018.6
20260507145043 58 189 1.0 5.0 0.00 0.00 0.00 48 1018.7
20260507144554 57 216 1.0 5.0 0.00 0.00 0.00 47 1018.8
20260507144044 57 244 1.0 5.0 0.00 0.00 0.00 47 1018.9
20260507143543 57 244 1.0 6.0 0.00 0.00 0.00 52 1019.0
20260507143055 57 201 1.0 6.0 0.00 0.00 0.00 51 1019.0
20260507142545 57 160 1.0 5.0 0.00 0.00 0.00 50 1018.9
20260507142044 56 174 1.0 4.0 0.00 0.00 0.00 51 1018.8
20260507141552 56 205 0.0 4.0 0.00 0.00 0.00 56 1019.0
20260507141043 55 219 1.0 6.0 0.00 0.00 0.00 54 1019.0
20260507140544 55 211 1.0 6.0 0.00 0.00 0.00 57 1019.0
20260507140106 54 140 1.0 4.0 0.00 0.00 0.00 51 1019.0
20260507135544 54 0 0.0 3.0 0.00 0.00 0.00 59 1019.1
20260507135043 53 144 0.0 3.0 0.00 0.00 0.00 64 1018.9
20260507134552 52 130 1.0 3.0 0.00 0.00 0.00 65 1019.0
20260507134044 51 0 0.0 2.0 0.00 0.00 0.00 68 1019.1
20260507133544 50 119 0.0 2.0 0.00 0.00 0.00 70 1019.1
20260507133058 49 0 0.0 2.0 0.00 0.00 0.00 73 1019.1
20260507132543 48 150 0.0 0.0 0.00 0.00 0.00 77 1019.0
20260507132043 47 0 0.0 0.0 0.00 0.00 0.00 80 1019.0
20260507131553 46 0 0.0 0.0 0.00 0.00 0.00 81 1019.0
20260507131044 45 0 0.0 0.0 0.00 0.00 0.00 83 1019.0
20260507130544 45 0 0.0 1.0 0.00 0.00 0.00 85 1019.0
20260507130106 44 0 0.0 1.0 0.00 0.00 0.00 85 1018.9
20260507125544 44 169 0.0 1.0 0.00 0.00 0.00 86 1019.0
20260507125043 43 0 0.0 1.0 0.00 0.00 0.00 86 1019.1
20260507124629 43 0 0.0 0.0 0.00 0.00 0.00 87 1019.1
20260507124043 43 0 0.0 0.0 0.00 0.00 0.00 87 1019.1
20260507123543 42 0 0.0 1.0 0.00 0.00 0.00 87 1019.0
20260507123057 42 0 0.0 1.0 0.00 0.00 0.00 88 1018.9
20260507122545 41 0 0.0 1.0 0.00 0.00 0.00 89 1019.0
20260507122044 41 0 0.0 1.0 0.00 0.00 0.00 89 1018.9
20260507121554 41 0 0.0 1.0 0.00 0.00 0.00 89 1018.8
20260507121043 41 0 0.0 1.0 0.00 0.00 0.00 89 1018.7
20260507120543 41 0 0.0 1.0 0.00 0.00 0.00 89 1018.8
20260507120058 40 0 0.0 1.0 0.00 0.00 0.00 88 1018.7
20260507115545 40 0 0.0 0.0 0.00 0.01 0.00 88 1018.7
20260507115044 40 0 0.0 0.0 0.00 0.01 0.00 88 1018.6
20260507114609 40 0 0.0 0.0 0.00 0.01 0.00 88 1018.5
20260507114044 40 0 0.0 0.0 0.00 0.01 0.00 88 1018.5
20260507113542 40 0 0.0 0.0 0.00 0.01 0.00 88 1018.5
20260507113056 40 0 0.0 0.0 0.00 0.01 0.00 88 1018.4
20260507112541 40 0 0.0 0.0 0.00 0.01 0.00 89 1018.4
20260507112045 39 0 0.0 0.0 0.00 0.01 0.00 89 1018.3
20260507111552 39 0 0.0 0.0 0.00 0.01 0.00 89 1018.3
20260507111045 39 0 0.0 0.0 0.00 0.01 0.00 89 1018.2
20260507110544 40 0 0.0 0.0 0.00 0.01 0.00 89 1018.3
20260507110054 40 0 0.0 0.0 0.00 0.01 0.00 89 1018.2
20260507105542 40 0 0.0 0.0 0.00 0.01 0.00 89 1018.2
20260507105042 39 0 0.0 0.0 0.00 0.01 0.00 89 1018.1
20260507104558 39 0 0.0 0.0 0.00 0.01 0.00 89 1018.1
20260507104042 39 0 0.0 0.0 0.00 0.01 0.00 90 1018.1
20260507103542 39 0 0.0 0.0 0.00 0.01 0.00 90 1018.1
20260507103054 39 0 0.0 0.0 0.00 0.01 0.00 90 1018.1
20260507102542 39 0 0.0 0.0 0.00 0.01 0.00 90 1018.2
20260507102042 39 0 0.0 1.0 0.00 0.01 0.00 90 1018.1
20260507101557 39 0 0.0 1.0 0.00 0.01 0.00 90 1018.0
20260507101041 39 0 0.0 0.0 0.00 0.01 0.00 91 1018.0
20260507100541 38 0 0.0 0.0 0.00 0.01 0.00 91 1018.3
20260507100056 38 0 0.0 0.0 0.00 0.01 0.00 91 1018.3
20260507095545 38 0 0.0 1.0 0.00 0.01 0.00 91 1018.3
20260507095041 38 0 0.0 1.0 0.00 0.01 0.00 92 1018.4
20260507094553 38 136 0.0 1.0 0.00 0.01 0.00 92 1018.2
20260507094044 37 0 0.0 0.0 0.00 0.01 0.00 92 1018.2
20260507093623 37 0 0.0 1.0 0.00 0.01 0.00 91 1018.4
20260507093052 37 0 0.0 1.0 0.00 0.01 0.00 91 1018.2
20260507092542 37 0 0.0 1.0 0.00 0.01 0.00 91 1018.2
20260507092042 36 161 0.0 0.0 0.00 0.01 0.00 91 1018.1
20260507091550 36 0 0.0 0.0 0.00 0.01 0.00 90 1018.1
20260507091042 36 0 0.0 0.0 0.00 0.01 0.00 90 1018.2
20260507090542 36 0 0.0 0.0 0.00 0.01 0.00 90 1018.1
20260507090051 37 0 0.0 0.0 0.00 0.01 0.00 90 1018.1
20260507085542 37 0 0.0 0.0 0.00 0.01 0.00 90 1018.0
20260507085042 37 0 0.0 0.0 0.00 0.01 0.00 90 1018.0
20260507084552 37 0 0.0 0.0 0.00 0.01 0.00 90 1017.8
20260507084041 37 0 0.0 0.0 0.00 0.01 0.00 90 1017.9
20260507083546 37 0 0.0 0.0 0.00 0.01 0.00 89 1018.0
20260507083053 37 0 0.0 0.0 0.00 0.01 0.00 89 1017.8
20260507082543 37 0 0.0 0.0 0.00 0.01 0.00 89 1018.0
20260507082042 38 0 0.0 0.0 0.00 0.01 0.00 89 1018.0
20260507081551 38 0 0.0 0.0 0.00 0.01 0.00 89 1018.0
20260507081041 37 0 0.0 0.0 0.00 0.01 0.00 89 1018.0
20260507080542 37 0 0.0 0.0 0.00 0.01 0.00 88 1018.0
20260507080056 38 0 0.0 0.0 0.00 0.01 0.00 87 1018.2
20260507075543 38 0 0.0 0.0 0.00 0.02 0.00 87 1018.3
20260507075044 38 0 0.0 0.0 0.00 0.02 0.00 87 1018.4
20260507074606 38 0 0.0 0.0 0.00 0.02 0.00 87 1018.5
20260507074043 38 0 0.0 0.0 0.00 0.02 0.00 87 1018.4
20260507073546 38 0 0.0 0.0 0.00 0.02 0.00 87 1018.4
20260507073054 38 0 0.0 0.0 0.00 0.02 0.00 87 1018.4
20260507072542 38 0 0.0 0.0 0.00 0.02 0.00 87 1018.6
20260507072042 38 0 0.0 0.0 0.00 0.02 0.00 86 1018.5
20260507071554 38 0 0.0 0.0 0.00 0.02 0.00 86 1018.6
20260507071042 39 0 0.0 0.0 0.00 0.02 0.00 86 1018.6
20260507070542 39 0 0.0 0.0 0.00 0.02 0.00 86 1018.6
20260507070109 39 0 0.0 0.0 0.00 0.02 0.00 85 1018.7
20260507065542 39 0 0.0 0.0 0.00 0.02 0.00 85 1018.7
20260507065041 39 0 0.0 0.0 0.00 0.02 0.00 85 1018.6
20260507064550 39 0 0.0 0.0 0.00 0.02 0.00 86 1018.6
20260507064042 39 0 0.0 0.0 0.00 0.02 0.00 86 1018.5
20260507063541 39 0 0.0 0.0 0.00 0.02 0.00 85 1018.4
20260507063058 39 0 0.0 0.0 0.00 0.02 0.00 85 1018.4
20260507062543 39 0 0.0 0.0 0.00 0.02 0.00 85 1018.5
20260507062041 39 0 0.0 0.0 0.00 0.02 0.00 84 1018.5
20260507061553 40 0 0.0 0.0 0.00 0.02 0.00 83 1018.6
20260507061042 40 0 0.0 0.0 0.00 0.02 0.00 83 1018.7
20260507060547 40 0 0.0 0.0 0.00 0.02 0.00 82 1018.6
20260507060055 40 0 0.0 0.0 0.00 0.02 0.00 83 1018.7
20260507055542 40 0 0.0 0.0 0.00 0.03 0.00 82 1018.7
20260507055043 40 0 0.0 0.0 0.00 0.03 0.00 82 1018.8
20260507054554 40 0 0.0 0.0 0.00 0.03 0.00 82 1018.7
20260507054042 40 0 0.0 0.0 0.00 0.03 0.00 82 1018.7
20260507053542 40 0 0.0 0.0 0.00 0.03 0.00 82 1018.8
20260507053056 40 0 0.0 0.0 0.00 0.03 0.00 82 1018.7
20260507052546 41 0 0.0 0.0 0.00 0.03 0.00 81 1018.5
20260507052042 41 0 0.0 0.0 0.00 0.03 0.00 81 1018.4
20260507051557 41 0 0.0 0.0 0.00 0.03 0.00 81 1018.4
20260507051042 41 0 0.0 0.0 0.00 0.03 0.00 80 1018.5
20260507050542 42 0 0.0 0.0 0.00 0.03 0.00 80 1018.4
20260507050056 42 0 0.0 0.0 0.00 0.03 0.00 80 1018.4
20260507045542 42 0 0.0 0.0 0.00 0.03 0.03 80 1018.4
20260507045042 42 0 0.0 0.0 0.00 0.03 0.03 79 1018.4
20260507044559 43 0 0.0 1.0 0.00 0.03 0.03 79 1018.4
20260507044045 43 0 0.0 1.0 0.00 0.03 0.03 77 1018.2
20260507043542 44 0 0.0 1.0 0.00 0.03 0.03 75 1018.3
20260507043054 45 0 0.0 1.0 0.00 0.03 0.03 72 1018.3
20260507042542 46 0 0.0 1.0 0.00 0.03 0.03 67 1018.2
20260507042042 46 0 0.0 1.0 0.00 0.03 0.03 66 1018.3
20260507041553 46 0 0.0 2.0 0.00 0.03 0.03 66 1018.4
20260507041042 46 0 0.0 3.0 0.00 0.03 0.03 66 1018.3
20260507040544 46 0 0.0 6.0 0.00 0.03 0.03 66 1018.3
20260507035541 46 317 1.0 6.0 0.00 0.03 0.03 69 1018.3
20260507035042 46 327 0.0 0.0 0.00 0.03 0.03 68 1018.2
20260507034557 46 0 0.0 0.0 0.00 0.03 0.03 69 1018.2
20260507034042 46 0 0.0 0.0 0.00 0.03 0.03 69 1018.2
20260507033542 46 0 0.0 0.0 0.00 0.03 0.03 67 1018.2
20260507033102 46 0 0.0 1.0 0.00 0.03 0.03 67 1018.1
20260507032541 47 0 0.0 1.0 0.00 0.03 0.03 68 1018.1
20260507032042 47 0 0.0 2.0 0.00 0.03 0.03 65 1018.2
20260507031604 48 0 0.0 2.0 0.00 0.03 0.03 64 1018.1
20260507031042 48 335 0.0 2.0 0.00 0.03 0.03 62 1017.9
20260507030541 49 0 0.0 2.0 0.00 0.03 0.03 61 1017.8
20260507030053 49 324 1.0 4.0 0.00 0.03 0.03 60 1017.7
20260507025544 49 340 0.0 4.0 0.00 0.03 0.03 59 1017.7
20260507025042 49 330 0.0 4.0 0.00 0.03 0.03 59 1017.7
20260507024556 49 21 0.0 2.0 0.00 0.03 0.03 59 1017.8
20260507024042 49 352 1.0 3.0 0.00 0.03 0.03 59 1017.8
20260507023543 50 334 0.0 3.0 0.00 0.03 0.03 59 1017.8
20260507023052 50 348 1.0 3.0 0.00 0.03 0.03 58 1017.7
20260507022541 50 344 1.0 3.0 0.00 0.03 0.03 59 1017.8
20260507022042 50 338 1.0 4.0 0.00 0.03 0.03 59 1017.7
20260507021556 50 331 1.0 4.0 0.00 0.03 0.03 59 1017.6
20260507021042 50 360 1.0 2.0 0.00 0.03 0.03 59 1017.6
20260507020542 51 36 1.0 2.0 0.00 0.03 0.03 59 1017.5
20260507020059 51 342 1.0 2.0 0.00 0.03 0.03 59 1017.5
20260507015542 51 336 0.0 2.0 0.00 0.05 0.03 59 1017.4
20260507015042 51 337 0.0 2.0 0.00 0.05 0.03 59 1017.4
20260507014558 52 347 0.0 2.0 0.00 0.05 0.03 58 1017.3
20260507014046 52 344 0.0 3.0 0.00 0.05 0.03 59 1017.2
20260507013544 52 0 1.0 3.0 0.00 0.05 0.03 59 1017.2
20260507013111 52 336 0.0 1.0 0.00 0.05 0.03 58 1017.1
20260507012543 53 10 0.0 2.0 0.00 0.05 0.03 58 1017.1
20260507012042 53 355 0.0 2.0 0.00 0.05 0.03 58 1017.1
20260507011552 53 327 0.0 2.0 0.00 0.05 0.03 57 1017.1
20260507011042 54 0 0.0 2.0 0.00 0.05 0.03 58 1017.0
20260507010543 54 344 0.0 1.0 0.00 0.05 0.03 55 1017.0
20260507010103 54 17 0.0 3.0 0.00 0.05 0.03 56 1016.8
20260507005543 54 0 0.0 3.0 0.00 0.07 0.03 55 1016.8
20260507005042 54 339 1.0 4.0 0.00 0.07 0.03 53 1016.8
20260507004551 55 11 0.0 5.0 0.00 0.07 0.03 53 1016.7
20260507004045 55 340 2.0 5.0 0.00 0.07 0.03 51 1016.6
20260507003542 55 328 1.0 7.0 0.00 0.07 0.03 52 1016.6
20260507003052 55 298 2.0 7.0 0.00 0.07 0.03 50 1016.6
20260507002542 56 15 1.0 9.0 0.00 0.07 0.03 52 1016.5
20260507002042 56 23 4.0 9.0 0.00 0.07 0.03 50 1016.4
20260507001557 56 322 2.0 7.0 0.00 0.07 0.03 51 1016.3
20260507001041 56 338 4.0 8.0 0.00 0.07 0.03 49 1016.2
20260507000542 56 347 2.0 8.0 0.00 0.07 0.03 49 1016.2
20260507000055 56 347 3.0 8.0 0.00 0.07 0.03 50 1016.1
20260506235542 56 319 3.0 12.0 0.00 0.15 0.03 50 1015.9
20260506235041 57 15 5.0 13.0 0.00 0.15 0.03 48 1015.8
20260506234554 57 342 4.0 13.0 0.00 0.15 0.03 49 1015.7
20260506234042 57 19 8.0 13.0 0.00 0.15 0.03 46 1015.7
20260506233544 58 348 6.0 13.0 0.00 0.15 0.03 47 1015.6
20260506233104 58 305 4.0 12.0 0.00 0.15 0.03 46 1015.6
20260506232542 58 327 5.0 12.0 0.00 0.15 0.03 45 1015.7
20260506232042 58 350 4.0 10.0 0.00 0.15 0.03 45 1015.7
20260506231600 58 333 6.0 12.0 0.00 0.15 0.03 44 1015.8
20260506231043 59 315 4.0 13.0 0.00 0.15 0.03 45 1015.8
20260506230542 59 309 6.0 13.0 0.00 0.15 0.03 43 1015.8
20260506225544 59 321 2.0 10.0 0.00 0.15 0.03 47 1015.7
20260506225042 59 20 5.0 10.0 0.00 0.15 0.03 44 1015.6
20260506224553 59 87 6.0 11.0 0.00 0.15 0.03 47 1015.6
20260506224044 59 20 5.0 11.0 0.00 0.15 0.03 45 1015.7
20260506223543 59 33 3.0 11.0 0.00 0.15 0.03 49 1015.8
20260506223053 59 342 2.0 9.0 0.00 0.15 0.03 46 1015.7
20260506222545 58 311 3.0 11.0 0.00 0.15 0.03 47 1015.7
20260506222043 59 38 4.0 11.0 0.00 0.15 0.03 47 1015.7
20260506221558 59 326 4.0 11.0 0.00 0.15 0.03 47 1015.6
20260506221042 58 28 3.0 8.0 0.00 0.15 0.03 51 1015.6
20260506220543 58 294 2.0 11.0 0.00 0.15 0.03 53 1015.7
20260506220056 58 325 2.0 11.0 0.00 0.15 0.03 48 1015.7
20260506215545 59 15 5.0 11.0 0.00 0.17 0.03 48 1015.6
20260506215042 59 317 4.0 11.0 0.00 0.17 0.03 48 1015.7
20260506214552 59 305 3.0 11.0 0.00 0.17 0.03 49 1015.7
20260506214041 59 325 5.0 11.0 0.00 0.17 0.03 49 1015.8
20260506213544 59 10 5.0 12.0 0.00 0.17 0.03 50 1016.0
20260506213052 60 339 5.0 20.0 0.00 0.17 0.03 48 1016.2
20260506212542 60 329 9.0 20.0 0.00 0.17 0.03 55 1016.1
20260506212046 60 287 3.0 12.0 0.00 0.17 0.03 47 1016.2
20260506211608 60 22 5.0 12.0 0.00 0.17 0.03 47 1016.2
20260506211044 59 334 1.0 11.0 0.00 0.17 0.03 50 1016.2
20260506210542 58 288 5.0 11.0 0.00 0.17 0.03 48 1016.0
20260506210052 58 304 5.0 13.0 0.00 0.17 0.03 50 1016.0
20260506205546 58 344 3.0 13.0 0.00 0.19 0.03 50 1016.1
20260506205042 59 11 2.0 9.0 0.00 0.19 0.03 51 1016.1
20260506204555 59 317 5.0 11.0 0.00 0.19 0.03 48 1016.2
20260506204043 58 335 5.0 13.0 0.00 0.19 0.03 48 1016.3
20260506203542 59 46 6.0 13.0 0.00 0.19 0.03 49 1016.2
20260506203055 58 317 3.0 11.0 0.00 0.19 0.03 53 1016.3
20260506202542 58 336 3.0 12.0 0.00 0.19 0.03 50 1016.5
20260506202043 57 49 4.0 13.0 0.00 0.19 0.03 50 1016.6
20260506201553 57 84 6.0 16.0 0.00 0.19 0.03 49 1016.7
20260506201043 57 346 6.0 16.0 0.00 0.19 0.03 48 1016.7
20260506200542 58 329 6.0 16.0 0.00 0.19 0.03 48 1016.8
20260506200055 58 20 3.0 16.0 0.00 0.19 0.03 54 1016.9
20260506195542 58 302 8.0 16.0 0.00 0.19 0.03 49 1016.9
20260506195042 58 346 6.0 16.0 0.00 0.19 0.03 49 1016.8
20260506194554 58 286 4.0 11.0 0.00 0.19 0.03 52 1016.9
20260506194041 57 342 5.0 11.0 0.00 0.19 0.03 54 1017.2
20260506193542 57 327 3.0 11.0 0.00 0.19 0.03 55 1017.2
20260506193054 57 13 3.0 11.0 0.00 0.19 0.03 56 1017.3
20260506192542 57 300 5.0 11.0 0.00 0.19 0.03 53 1017.3
20260506192042 57 321 2.0 8.0 0.00 0.19 0.03 53 1017.3
20260506191553 57 317 2.0 9.0 0.00 0.19 0.03 51 1017.3
20260506191044 57 340 3.0 9.0 0.00 0.19 0.03 52 1017.4
20260506190542 57 38 4.0 11.0 0.00 0.19 0.03 52 1017.5
20260506190055 57 325 1.0 13.0 0.00 0.19 0.03 54 1017.6
20260506185542 57 34 7.0 13.0 0.00 0.19 0.03 53 1017.7
20260506185042 57 13 1.0 11.0 0.00 0.19 0.03 58 1017.8
20260506184553 56 30 4.0 11.0 0.00 0.19 0.03 54 1017.9
20260506184042 57 328 3.0 11.0 0.00 0.19 0.03 55 1017.9
20260506183542 56 352 2.0 9.0 0.00 0.19 0.03 56 1018.0
20260506183053 56 308 4.0 9.0 0.00 0.19 0.03 55 1018.0
20260506182541 56 300 3.0 8.0 0.00 0.19 0.03 55 1017.8
20260506182045 56 30 3.0 9.0 0.00 0.19 0.03 57 1017.9
20260506181552 56 299 2.0 9.0 0.00 0.19 0.03 62 1017.9
20260506181046 55 349 2.0 10.0 0.00 0.19 0.03 56 1018.0
20260506180544 55 318 4.0 10.0 0.00 0.19 0.03 59 1018.0
20260506180055 55 336 4.0 10.0 0.00 0.19 0.03 58 1018.0
20260506175543 55 30 2.0 12.0 0.00 0.19 0.03 63 1018.0
20260506175043 54 0 2.0 12.0 0.00 0.19 0.03 59 1018.1
20260506174552 54 291 5.0 12.0 0.00 0.19 0.03 60 1018.2
20260506174042 54 333 4.0 11.0 0.00 0.19 0.03 62 1018.2
20260506173545 54 316 6.0 11.0 0.00 0.19 0.03 61 1018.3
20260506173107 54 330 3.0 12.0 0.00 0.19 0.03 60 1018.3
20260506172542 54 9 6.0 12.0 0.00 0.19 0.03 60 1018.0
20260506172042 54 309 4.0 12.0 0.00 0.19 0.03 63 1017.8
20260506171553 54 329 5.0 12.0 0.00 0.19 0.03 61 1017.7
20260506171042 54 327 2.0 13.0 0.00 0.19 0.03 65 1017.7
20260506170542 53 327 4.0 13.0 0.00 0.19 0.03 62 1017.7
20260506170100 53 338 7.0 13.0 0.00 0.19 0.03 62 1017.7
20260506165545 53 360 6.0 11.0 0.00 0.19 0.03 66 1017.8
20260506165042 53 11 6.0 10.0 0.00 0.19 0.03 67 1017.8
20260506164610 53 312 4.0 10.0 0.00 0.19 0.03 65 1017.9
20260506164041 53 331 5.0 10.0 0.00 0.19 0.03 65 1017.7
20260506163541 53 28 2.0 10.0 0.00 0.19 0.03 67 1017.9
20260506163058 53 10 2.0 9.0 0.00 0.19 0.03 68 1018.0
20260506162542 53 63 4.0 9.0 0.00 0.19 0.03 66 1017.9
20260506162041 53 18 4.0 8.0 0.00 0.19 0.03 67 1017.9
20260506161554 53 311 3.0 8.0 0.00 0.19 0.03 67 1017.7
20260506161043 54 35 3.0 6.0 0.00 0.19 0.03 65 1017.6
20260506160542 54 0 0.0 7.0 0.00 0.19 0.03 68 1017.6
20260506160106 53 119 1.0 9.0 0.00 0.19 0.03 67 1017.5
20260506155542 53 11 1.0 9.0 0.00 0.19 0.03 69 1017.3
20260506155042 52 22 1.0 8.0 0.00 0.19 0.03 69 1017.2
20260506154555 52 308 1.0 5.0 0.00 0.19 0.03 72 1017.4
20260506154042 52 330 0.0 4.0 0.00 0.19 0.03 71 1017.1
20260506153541 51 0 1.0 4.0 0.00 0.19 0.03 74 1017.2
20260506153055 50 313 1.0 4.0 0.00 0.19 0.03 76 1017.4
20260506152542 50 0 1.0 4.0 0.00 0.19 0.03 75 1017.4
20260506152042 49 318 0.0 5.0 0.00 0.19 0.03 75 1017.4